Weather in Agadyr

Kazakhstan     48°15′42″N   72°51′15″E
temp.,
°C
wind,
m/s
gust,
m/s
humid.,
%
clouds,
%
prec.,
mm/h
press.,
hPa
HPBL,
m
28 november, sun
sun2800:00−14se34855 0.0 104545
03:00−14sse35834 0.0 104455
06:00−14se34865 0.0 104343
09:00−15se33823 0.0 104333
12:00−7se38663 0.0 1041179
15:00−5se38660 0.0 1038152
18:00−11se34740 0.0 104027
21:00−12se34690 0.0 103931
29 november, mon
mon2900:00−12sse34650 0.0 103833
03:00−12se34640 0.0 103731
06:00−12sse33635 0.0 103625
09:00−12sse33645 0.0 103621
12:00−4sse35570 0.0 103278
15:00−3se22685 0.0 103128
18:00−9sse33725 0.0 103313
21:00−11sse336814 0.0 103417
30 november, tue
tue3000:00−10sse336686 0.0 103225
03:00−11sse3370100 0.0 103222
06:00−11sse2277100 0.0 103216
09:00−9sse3375100 0.0 103237
12:00−4sse3672100 0.0 1030138
15:00−3sse3475100 0.0 102986
18:00−7sse3383100 0.0 103031
21:00−8sse3479100 0.0 103149
1 december, wed
wed100:00−8sse3481100 0.0 103052
03:00−9sse3485100 0.0 102945
06:00−10sse33885 0.0 102929
09:00−10sse338682 0.0 102936
12:00−3sse36789 0.0 1026145
15:00−2se34775 0.0 102474
18:00−7sse33855 0.0 102529
21:00−8se34813 0.0 102548
2 december, thu
thu200:00−8sse34770 0.0 102448
03:00−7sse44750 0.0 102348
06:00−7sse35745 0.0 102247
09:00−7sse467371 0.0 102260
12:00−2sse51170100 0.0 1019203
15:000se51171100 0.0 1017197
18:00−1sse5117499 0.0 1017151
21:000sse5137917 0.0 1016217